Location: Bergnerzell
(49.1816°N, 10.2565°E)
Time: 00:37:34
(UTC+00:00)

Meteor 1-24 Rocket - Pass Details

Date: 05 August 2024
Orbit: 790 x 925 km, 81.3° (Epoch: 09 September)

Event Time Altitude Azimuth Distance (km) Brightness Sun altitude
Rises 02:10:34 0° 352° (N) 3,453 7.5 -14.5°
Reaches altitude 10° 02:13:08 10° 0° (N) 2,533 6.9 -14.2°
Maximum altitude 02:18:34 40° 70° (ENE) 1,292 5.2 -13.6°
Drops below altitude 10° 02:24:06 10° 139° (SE) 2,593 6.2 -13.0°
Sets 02:26:45 0° 147° (SSE) 3,543 6.8 -12.7°
